{"data":{"norad_id":57997,"intl_designator":"2023-153G","name":"STARLINK-30523","alt_names":[],"object_type":"PAYLOAD","status":"ACTIVE","operator":null,"country":"US","launch_date":"2023-10-05","launch_site_code":"AFETR","launch_vehicle":null,"mission":null,"orbit_class":"UNKNOWN","rcs_meters":null,"size_class":null,"mass_kg":null,"dimensions":null,"purposes":["comms"],"wikipedia_slug":null,"has_3d_model":false,"image_url":null,"decayed_at":null,"tle_current":{"epoch":"2026-09-19T03:38:10.023360Z","epoch_age_seconds":254480,"freshness":"STALE","line1":"1 57997U 23153G   26262.15150490  .00000340  00000+0  21880-4 0  9993","line2":"2 57997  43.0063  54.5044 0002068 280.3330  79.7288 15.27578508164484","mean_motion":15.27578508,"eccentricity":0.0002068,"inclination_deg":43.0063,"raan_deg":54.5044,"arg_perigee_deg":280.333,"mean_anomaly_deg":79.7288,"bstar":2.188e-5,"rev_number":16448,"period_min":94.266840784853,"perigee_km":481.63466941948,"apogee_km":484.47245783659,"semimajor_km":6861.190563628,"source":"CELESTRAK","updated_at":"2026-09-21T09:00:33.754216Z"}}}